Fort Benning, AL

1:47 AM CST on December 15, 2017 (GMT -0600)
Lawson Army Air Field

Weather History for KLSF - October, 2012

Change the Weather History Date:

Friday, October 19, 2012

  Actual Average Record
Temperature  
Mean Temperature 60 °F -  
Max Temperature 77 °F 74 °F 90 °F (2016)
Min Temperature 42 °F 49 °F 37 °F (1996)
Degree Days  
Heating Degree Days 6    
Growing Degree Days 10 (Base 50)    
Moisture  
Dew Point 47 °F    
Average Humidity 93    
Maximum Humidity 100    
Minimum Humidity 21    
Precipitation  
Precipitation 0.00 in - - ()
Sea Level Pressure  
Sea Level Pressure 29.86 in    
Wind  
Wind Speed 2 mph (SSE)    
Max Wind Speed 15 mph    
Max Gust Speed 18 mph    
Visibility 2 miles    
Events Fog    
Averages and records for this station are not official NWS values.
T = Trace of Precipitation, MM = Missing Value Source: NWS Daily Summary

Daily Weather History Graph

Daily Weather History Graph

Search for Another Location

Airport or City:

Trip Planner

Search our weather history database for the weather conditions in past years. The results will help you decide how hot, cold, wet, or windy it might be!

Date:

Astronomy

Oct. 19, 2012 Rise Set
Actual Time 7:47 AM EDT 7:02 PM EDT
Civil Twilight 7:22 AM EDT 7:26 PM EDT
Nautical Twilight 6:53 AM EDT 7:55 PM EDT
Astronomical Twilight 6:25 AM EDT 8:23 PM EDT
Moon 12:17 PM EDT (10/19) 10:50 PM EDT (10/19)
Length of Visible Light 12h 04m
Length of Day
11h 15m
Waxing Crescent, 23% of the Moon is Illuminated
Oct 19
Waxing Crescent
Oct 21
First Quarter
Oct 29
Full
Nov 6
Last Quarter
Nov 13
New

Hourly Weather History & Observations

Time (EDT) Temp. Windchill Dew Point Humidity Pressure Visibility Wind Dir Wind Speed Gust Speed Precip Events Conditions
12:01 AM 55.4 °F - 55.4 °F 100% 29.86 in 1.0 mi Calm Calm - N/A   Partly Cloudy
12:02 AM 55.4 °F - 55.4 °F 100% 29.86 in 1.2 mi Calm Calm - N/A   Partly Cloudy
12:03 AM 55.4 °F - 55.4 °F 100% 29.86 in 2.0 mi Calm Calm - N/A   Partly Cloudy
12:04 AM 55.4 °F - 55.4 °F 100% 29.86 in 3.0 mi Calm Calm - N/A   Partly Cloudy
12:55 AM 54.9 °F - 54.7 °F 99% 29.86 in 10.0 mi Calm Calm - N/A   Clear
1:12 AM 53.6 °F - 53.6 °F 100% 29.86 in 2.5 mi Calm Calm - N/A   Clear
1:18 AM 55.4 °F - 55.4 °F 100% 29.86 in 1.8 mi SE 3.5 mph - N/A   Clear
1:19 AM 55.4 °F - 55.4 °F 100% 29.86 in 1.2 mi SE 3.5 mph - N/A   Clear
1:20 AM 55.4 °F - 55.4 °F 100% 29.86 in 1.0 mi SE 3.5 mph - N/A   Clear
1:22 AM 55.4 °F - 55.4 °F 100% 29.86 in 0.8 mi SE 3.5 mph - N/A   Clear
1:28 AM 53.6 °F - 53.6 °F 100% 29.86 in 0.5 mi Calm Calm - N/A Fog Fog
1:29 AM 53.6 °F - 53.6 °F 100% 29.86 in 0.8 mi Calm Calm - N/A   Clear
1:31 AM 53.6 °F - 53.6 °F 100% 29.86 in 1.0 mi Calm Calm - N/A   Clear
1:33 AM 53.6 °F - 53.6 °F 100% 29.86 in 1.2 mi Calm Calm - N/A   Clear
1:34 AM 53.6 °F - 53.6 °F 100% 29.86 in 1.5 mi Calm Calm - N/A   Clear
1:35 AM 53.6 °F - 53.6 °F 100% 29.86 in 1.8 mi Calm Calm - N/A   Clear
1:36 AM 53.6 °F - 53.6 °F 100% 29.86 in 2.0 mi Calm Calm - N/A   Clear
1:38 AM 51.8 °F - 51.8 °F 100% 29.86 in 4.0 mi Calm Calm - N/A   Clear
1:55 AM 53.6 °F - 53.4 °F 99% 29.86 in 10.0 mi Calm Calm - N/A   Clear
2:08 AM 53.6 °F - 53.6 °F 100% 29.86 in 2.5 mi SSE 3.5 mph - N/A   Clear
2:13 AM 53.6 °F - 51.8 °F 94% 29.86 in 3.0 mi SSE 3.5 mph - N/A   Clear
2:19 AM 51.8 °F - 51.8 °F 100% 29.86 in 2.5 mi South 3.5 mph - N/A   Clear
2:23 AM 51.8 °F - 51.8 °F 100% 29.86 in 1.8 mi South 3.5 mph - N/A   Clear
2:24 AM 51.8 °F - 51.8 °F 100% 29.86 in 1.2 mi SSE 3.5 mph - N/A   Clear
2:25 AM 51.8 °F - 51.8 °F 100% 29.86 in 1.0 mi SSE 3.5 mph - N/A   Clear
2:29 AM 51.8 °F - 50.0 °F 94% 29.86 in 0.8 mi South 3.5 mph - N/A   Clear
2:31 AM 50.0 °F - 50.0 °F 100% 29.86 in 0.8 mi SSE 3.5 mph - N/A   Clear
2:32 AM 50.0 °F - 50.0 °F 100% 29.86 in 0.8 mi SSE 3.5 mph - N/A   Clear
2:33 AM 50.0 °F - 50.0 °F 100% 29.86 in 0.8 mi SSE 3.5 mph - N/A   Clear
2:35 AM 50.0 °F - 50.0 °F 100% 29.86 in 0.8 mi SSE 3.5 mph - N/A   Clear
2:36 AM 50.0 °F - 50.0 °F 100% 29.86 in 0.8 mi SSE 3.5 mph - N/A   Clear
2:48 AM 50.0 °F - 50.0 °F 100% 29.86 in 1.0 mi Calm Calm - N/A   Clear
2:50 AM 50.0 °F - 50.0 °F 100% 29.86 in 1.2 mi Calm Calm - N/A   Clear
2:51 AM 50.0 °F - 50.0 °F 100% 29.86 in 1.5 mi Calm Calm - N/A   Clear
2:52 AM 50.0 °F - 50.0 °F 100% 29.86 in 2.0 mi Calm Calm - N/A   Clear
2:53 AM 50.0 °F - 50.0 °F 100% 29.86 in 3.0 mi Calm Calm - N/A   Clear
2:55 AM 51.1 °F - 50.7 °F 99% 29.86 in 8.0 mi Calm Calm - N/A   Clear
3:31 AM 48.2 °F - 48.2 °F 100% 29.86 in 2.5 mi Calm Calm - N/A   Clear
3:33 AM 48.2 °F - 48.2 °F 100% 29.86 in 1.8 mi Calm Calm - N/A   Clear
3:34 AM 48.2 °F - 48.2 °F 100% 29.86 in 1.5 mi Calm Calm - N/A   Clear
3:35 AM 48.2 °F - 48.2 °F 100% 29.86 in 1.2 mi Calm Calm - N/A   Clear
3:36 AM 48.2 °F - 48.2 °F 100% 29.86 in 1.0 mi Calm Calm - N/A   Clear
3:38 AM 48.2 °F - 48.2 °F 100% 29.86 in 0.8 mi Calm Calm - N/A   Clear
3:40 AM 48.2 °F - 48.2 °F 100% 29.86 in 0.8 mi Calm Calm - N/A   Clear
3:41 AM 48.2 °F - 48.2 °F 100% 29.86 in 0.5 mi Calm Calm - N/A Fog Fog
3:43 AM 48.2 °F - 48.2 °F 100% 29.86 in 0.5 mi Calm Calm - N/A Fog Fog
3:55 AM 46.9 °F - 46.6 °F 99% 29.86 in 0.5 mi SSE 3.5 mph - N/A Fog Fog
4:07 AM 46.4 °F 44.3 °F 46.4 °F 100% 29.86 in 0.5 mi SE 4.6 mph - N/A Fog Fog
4:08 AM 46.4 °F 44.3 °F 46.4 °F 100% 29.86 in 0.5 mi SE 4.6 mph - N/A Fog Fog
4:10 AM 46.4 °F 44.3 °F 46.4 °F 100% 29.86 in 0.8 mi SE 4.6 mph - N/A   Clear
4:12 AM 48.2 °F - 46.4 °F 93% 29.86 in 1.0 mi SE 4.6 mph - N/A   Clear
4:13 AM 48.2 °F - 46.4 °F 93% 29.86 in 1.2 mi SE 3.5 mph - N/A   Clear
4:14 AM 46.4 °F 45.2 °F 46.4 °F 100% 29.86 in 1.5 mi SE 3.5 mph - N/A   Clear
4:15 AM 46.4 °F 45.2 °F 46.4 °F 100% 29.86 in 2.0 mi SE 3.5 mph - N/A   Clear
4:16 AM 46.4 °F - 46.4 °F 100% 29.86 in 3.0 mi Calm Calm - N/A   Clear
4:26 AM 48.2 °F - 46.4 °F 93% 29.86 in 2.5 mi Calm Calm - N/A   Clear
4:27 AM 48.2 °F - 46.4 °F 93% 29.86 in 3.0 mi Calm Calm - N/A   Clear
4:39 AM 48.2 °F - 46.4 °F 93% 29.86 in 2.5 mi Calm Calm - N/A   Clear
4:40 AM 48.2 °F - 46.4 °F 93% 29.86 in 1.8 mi Calm Calm - N/A   Clear
4:41 AM 48.2 °F - 46.4 °F 93% 29.86 in 1.2 mi Calm Calm - N/A   Clear
4:42 AM 48.2 °F - 46.4 °F 93% 29.86 in 1.0 mi Calm Calm - N/A   Clear
4:45 AM 48.2 °F - 46.4 °F 93% 29.86 in 1.0 mi Calm Calm - N/A   Clear
4:48 AM 48.2 °F - 48.2 °F 100% 29.86 in 0.8 mi Calm Calm - N/A   Clear
4:53 AM 48.2 °F - 48.2 °F 100% 29.86 in 0.5 mi SE 3.5 mph - N/A Fog Fog
4:55 AM 47.7 °F - 47.3 °F 99% 29.86 in 0.5 mi SE 3.5 mph - N/A Fog Fog
4:56 AM 48.2 °F - 46.4 °F 93% 29.86 in 0.5 mi Calm Calm - N/A Fog Fog
4:57 AM 48.2 °F - 46.4 °F 93% 29.86 in 0.5 mi Calm Calm - N/A Fog Fog
4:58 AM 48.2 °F - 46.4 °F 93% 29.86 in 0.2 mi Calm Calm - N/A Fog Fog
5:02 AM 46.4 °F - 46.4 °F 100% 29.86 in 0.5 mi Calm Calm - N/A Fog Fog
5:26 AM 44.6 °F - 44.6 °F 100% 29.86 in 0.2 mi Calm Calm - N/A Fog Fog
5:30 AM 44.6 °F 43.1 °F 44.6 °F 100% 29.86 in 0.5 mi SSE 3.5 mph - N/A Fog Fog
5:34 AM 44.6 °F 43.1 °F 44.6 °F 100% 29.86 in 0.5 mi SSE 3.5 mph - N/A Fog Fog
5:35 AM 44.6 °F 43.1 °F 44.6 °F 100% 29.86 in 0.5 mi SSE 3.5 mph - N/A Fog Fog
5:37 AM 44.6 °F 43.1 °F 44.6 °F 100% 29.86 in 0.8 mi SSE 3.5 mph - N/A   Clear
5:39 AM 44.6 °F 43.1 °F 44.6 °F 100% 29.86 in 1.0 mi SE 3.5 mph - N/A   Clear
5:40 AM 44.6 °F 43.1 °F 44.6 °F 100% 29.86 in 1.2 mi SE 3.5 mph - N/A   Clear
5:41 AM 44.6 °F 43.1 °F 44.6 °F 100% 29.86 in 1.5 mi SE 3.5 mph - N/A   Clear
5:42 AM 44.6 °F 43.1 °F 44.6 °F 100% 29.86 in 1.8 mi SE 3.5 mph - N/A   Clear
5:43 AM 44.6 °F 42.2 °F 44.6 °F 100% 29.86 in 2.0 mi SE 4.6 mph - N/A   Clear
5:46 AM 44.6 °F 42.2 °F 44.6 °F 100% 29.86 in 1.8 mi SE 4.6 mph - N/A   Clear
5:47 AM 44.6 °F 43.1 °F 42.8 °F 93% 29.86 in 1.5 mi SE 3.5 mph - N/A   Clear
5:48 AM 44.6 °F 43.1 °F 42.8 °F 93% 29.87 in 1.2 mi SSE 3.5 mph - N/A   Clear
5:49 AM 42.8 °F 41.1 °F 42.8 °F 100% 29.87 in 1.0 mi SE 3.5 mph - N/A   Clear
5:52 AM 42.8 °F 41.1 °F 42.8 °F 100% 29.87 in 1.0 mi SSE 3.5 mph - N/A   Clear
5:54 AM 42.8 °F 41.1 °F 42.8 °F 100% 29.87 in 1.0 mi SSE 3.5 mph - N/A   Clear
5:55 AM 43.3 °F 41.7 °F 43.2 °F 99% 29.87 in 1.0 mi SSE 3.5 mph - N/A   Clear
5:57 AM 42.8 °F 41.1 °F 42.8 °F 100% 29.87 in 1.2 mi SSE 3.5 mph - N/A   Clear
5:58 AM 44.6 °F 43.1 °F 42.8 °F 93% 29.87 in 1.8 mi SSE 3.5 mph - N/A   Clear
5:59 AM 44.6 °F 43.1 °F 42.8 °F 93% 29.87 in 2.5 mi SSE 3.5 mph - N/A   Clear
6:00 AM 44.6 °F 43.1 °F 44.6 °F 100% 29.87 in 3.0 mi SSE 3.5 mph - N/A   Clear
6:12 AM 44.6 °F - 44.6 °F 100% 29.87 in 2.5 mi Calm Calm - N/A   Clear
6:13 AM 44.6 °F - 44.6 °F 100% 29.87 in 1.8 mi Calm Calm - N/A   Clear
6:14 AM 44.6 °F - 44.6 °F 100% 29.87 in 1.2 mi Calm Calm - N/A   Clear
6:15 AM 44.6 °F - 44.6 °F 100% 29.87 in 1.0 mi Calm Calm - N/A   Clear
6:16 AM 44.6 °F - 44.6 °F 100% 29.87 in 0.8 mi Calm Calm - N/A   Clear
6:17 AM 44.6 °F - 44.6 °F 100% 29.87 in 0.5 mi Calm Calm - N/A Fog Fog
6:18 AM 44.6 °F - 44.6 °F 100% 29.87 in 0.5 mi Calm Calm - N/A Fog Fog
6:19 AM 44.6 °F - 44.6 °F 100% 29.87 in 0.5 mi Calm Calm - N/A Fog Fog
6:20 AM 44.6 °F - 44.6 °F 100% 29.87 in 0.5 mi Calm Calm - N/A Fog Fog
6:21 AM 44.6 °F - 44.6 °F 100% 29.87 in 0.5 mi Calm Calm - N/A Fog Fog
6:26 AM 44.6 °F - 44.6 °F 100% 29.87 in 0.2 mi Calm Calm - N/A Fog Fog
6:37 AM 44.6 °F - 44.6 °F 100% 29.87 in 0.5 mi Calm Calm - N/A Fog Fog
6:42 AM 44.6 °F - 44.6 °F 100% 29.87 in 0.8 mi Calm Calm - N/A   Clear
6:45 AM 44.6 °F - 44.6 °F 100% 29.87 in 0.5 mi Calm Calm - N/A Fog Fog
6:51 AM 44.6 °F - 44.6 °F 100% 29.87 in 0.2 mi Calm Calm - N/A Fog Fog
6:55 AM 44.8 °F - 44.4 °F 99% 29.87 in 0.2 mi Calm Calm - N/A Fog Fog
7:02 AM 44.6 °F 43.1 °F 44.6 °F 100% 29.88 in 0.5 mi SSE 3.5 mph - N/A Fog Fog
7:11 AM 44.6 °F - 44.6 °F 100% 29.88 in 0.8 mi Calm Calm - N/A   Clear
7:12 AM 44.6 °F - 44.6 °F 100% 29.88 in 0.5 mi Calm Calm - N/A Fog Fog
7:37 AM 42.8 °F 41.1 °F 42.8 °F 100% 29.88 in 0.5 mi SE 3.5 mph - N/A Fog Fog
7:38 AM 42.8 °F - 42.8 °F 100% 29.88 in 0.5 mi Calm Calm - N/A Fog Fog
7:43 AM 42.8 °F - 42.8 °F 100% 29.88 in 0.8 mi Calm Calm - N/A   Clear
7:45 AM 42.8 °F - 42.8 °F 100% 29.88 in 1.5 mi Calm Calm - N/A   Clear
7:46 AM 42.8 °F - 42.8 °F 100% 29.88 in 2.5 mi Calm Calm - N/A   Clear
7:47 AM 42.8 °F - 42.8 °F 100% 29.88 in 4.0 mi Calm Calm - N/A   Clear
7:55 AM 42.8 °F - 42.6 °F 99% 29.88 in 10.0 mi Calm Calm - N/A   Clear
8:00 AM 42.8 °F - 42.8 °F 100% 29.88 in 2.5 mi Calm Calm - N/A   Clear
8:02 AM 42.8 °F - 42.8 °F 100% 29.88 in 1.8 mi Calm Calm - N/A   Clear
8:03 AM 42.8 °F - 42.8 °F 100% 29.88 in 1.5 mi Calm Calm - N/A   Clear
8:04 AM 42.8 °F 41.1 °F 42.8 °F 100% 29.88 in 1.2 mi ESE 3.5 mph - N/A   Clear
8:05 AM 42.8 °F 41.1 °F 41.0 °F 93% 29.88 in 1.0 mi ESE 3.5 mph - N/A   Clear
8:55 AM 47.5 °F - 47.3 °F 99% 29.89 in 5.0 mi Calm Calm - N/A   Clear
9:04 AM 48.2 °F - 48.2 °F 100% 29.89 in 2.0 mi SE 3.5 mph - N/A   Clear
9:05 AM 48.2 °F - 48.2 °F 100% 29.88 in 5.0 mi ESE 3.5 mph - N/A   Clear
9:55 AM 52.7 °F - 52.3 °F 99% 29.90 in 10.0 mi Calm Calm - N/A   Clear
10:55 AM 63.3 °F - 51.3 °F 65% 29.90 in 10.0 mi Variable 3.5 mph - N/A   Clear
11:55 AM 70.9 °F - 41.5 °F 35% 29.89 in 10.0 mi Variable 6.9 mph - N/A   Clear
12:55 PM 73.2 °F - 38.7 °F 29% 29.88 in 10.0 mi WSW 9.2 mph 16.1 mph N/A   Clear
1:55 PM 75.4 °F - 36.5 °F 24% 29.85 in 10.0 mi Variable 6.9 mph - N/A   Clear
2:55 PM 76.6 °F - 36.0 °F 23% 29.82 in 10.0 mi WSW 11.5 mph - N/A   Clear
3:55 PM 77.2 °F - 35.1 °F 22% 29.80 in 10.0 mi WNW 15.0 mph - N/A   Clear
4:55 PM 76.3 °F - 34.0 °F 21% 29.79 in 10.0 mi West 9.2 mph 18.4 mph N/A   Clear
5:55 PM 74.7 °F - 34.3 °F 23% 29.79 in 10.0 mi SW 9.2 mph - N/A   Clear
6:55 PM 69.6 °F - 35.8 °F 29% 29.81 in 10.0 mi SW 3.5 mph - N/A   Clear
7:55 PM 61.2 °F - 42.3 °F 50% 29.83 in 10.0 mi SSW 3.5 mph - N/A   Clear
8:55 PM 53.6 °F - 43.9 °F 70% 29.84 in 10.0 mi Calm Calm - N/A   Clear
9:55 PM 48.6 °F - 42.4 °F 79% 29.86 in 10.0 mi Calm Calm - N/A   Clear
10:55 PM 49.5 °F - 42.6 °F 77% 29.86 in 10.0 mi Calm Calm - N/A   Clear
11:55 PM 47.8 °F - 43.2 °F 84% 29.88 in 10.0 mi Calm Calm - N/A   Clear